Weather History for Ann Arbor, MI

Change the Weather History Date:

Thursday, January 31, 2013

  Actual Average Record
Temperature  
Mean Temperature 22 °F -  
Max Temperature 30 °F 29 °F 54 °F (2012)
Min Temperature 15 °F 12 °F 1 °F (2004)
Degree Days  
Heating Degree Days 42    
Moisture  
Dew Point 15 °F    
Average Humidity 76    
Maximum Humidity 89    
Minimum Humidity 60    
Precipitation  
Precipitation 0.00 in - - ()
Sea Level Pressure  
Sea Level Pressure 29.65 in    
Wind  
Wind Speed 20 mph (West)    
Max Wind Speed 30 mph    
Max Gust Speed 44 mph    
Visibility 5 miles    
Events Snow    
Averages and records for this station are not official NWS values.
T = Trace of Precipitation, MM = Missing Value Source: NWS Daily Summary

Daily Weather History Graph

Daily Weather History Graph

Search for Another Location

Airport:

Trip Planner

Search our weather history database for the weather conditions in past years. The results will help you decide how hot, cold, wet, or windy it might be!

Date:

Astronomy

Jan. 31, 2013 Rise Set
Actual Time 7:48 AM EST 5:48 PM EST
Civil Twilight 7:19 AM EST 6:18 PM EST
Nautical Twilight 6:45 AM EST 6:51 PM EST
Astronomical Twilight 6:12 AM EST 7:24 PM EST
Moon 10:56 PM EST 9:41 AM EST
Length of Visible Light 10h 58m
Length of Day
9h 59m
Waning Gibbous, 80% of the Moon is Illuminated
Jan 31
Waning Gibbous
Feb 3
Last Quarter
Feb 10
New
Feb 17
First Quarter
Feb 25
Full

Hourly Weather History & Observations

Time (EST) Temp. Windchill Dew Point Humidity Pressure Visibility Wind Dir Wind Speed Gust Speed Precip Events Conditions
12:01 AM 30.2 °F 16.2 °F 23.0 °F 75% 29.27 in 10.0 mi West 25.3 mph 40.3 mph N/A   Mostly Cloudy
12:22 AM 30.2 °F 16.2 °F 21.2 °F 69% 29.29 in 10.0 mi WNW 25.3 mph 39.1 mph N/A   Overcast
12:45 AM 30.2 °F 15.7 °F 19.4 °F 64% 29.31 in 10.0 mi West 27.6 mph 42.6 mph N/A   Overcast
12:53 AM 28.9 °F 14.3 °F 19.0 °F 67% 29.32 in 10.0 mi West 26.5 mph 42.6 mph N/A   Mostly Cloudy
1:40 AM 28.4 °F 14.7 °F 19.4 °F 69% 29.34 in 10.0 mi WNW 21.9 mph 27.6 mph N/A   Overcast
1:53 AM 28.0 °F 13.6 °F 19.0 °F 69% 29.37 in 10.0 mi West 24.2 mph 32.2 mph N/A   Overcast
2:17 AM 28.4 °F 13.8 °F 17.6 °F 64% 29.38 in 10.0 mi WNW 25.3 mph 39.1 mph 0.00 in   Overcast
2:53 AM 28.0 °F 14.9 °F 18.0 °F 66% 29.42 in 10.0 mi WNW 19.6 mph 32.2 mph 0.00 in   Overcast
3:53 AM 27.0 °F 13.9 °F 18.0 °F 69% 29.44 in 10.0 mi WNW 18.4 mph 27.6 mph N/A   Overcast
4:10 AM 26.6 °F 10.8 °F 17.6 °F 69% 29.44 in 8.0 mi West 27.6 mph 39.1 mph 0.00 in Snow Light Snow
4:53 AM 25.0 °F 8.1 °F 12.9 °F 60% 29.48 in 10.0 mi WNW 29.9 mph 43.7 mph 0.00 in   Overcast
5:53 AM 24.1 °F 10.1 °F 17.1 °F 75% 29.52 in 5.0 mi West 18.4 mph 29.9 mph 0.00 in Snow Light Snow
5:59 AM 24.8 °F 10.3 °F 17.6 °F 74% 29.50 in 2.5 mi West 20.7 mph 33.4 mph 0.00 in Snow Light Snow
6:08 AM 23.0 °F 8.7 °F 19.4 °F 86% 29.50 in 1.2 mi West 18.4 mph 26.5 mph 0.00 in Snow Light Snow
6:25 AM 23.0 °F 10.1 °F 19.4 °F 86% 29.51 in 1.5 mi West 15.0 mph - 0.00 in Snow Light Snow
6:33 AM 24.8 °F 10.7 °F 17.6 °F 74% 29.51 in 3.0 mi West 19.6 mph 32.2 mph 0.00 in Snow Light Snow
6:53 AM 23.0 °F 8.7 °F 16.0 °F 74% 29.54 in 9.0 mi West 18.4 mph 32.2 mph 0.00 in   Overcast
7:38 AM 21.2 °F 6.8 °F 17.6 °F 86% 29.55 in 1.8 mi West 17.3 mph 27.6 mph 0.00 in Snow Light Snow
7:53 AM 21.9 °F 7.8 °F 19.0 °F 89% 29.58 in 0.8 mi West 17.3 mph 24.2 mph 0.00 in Snow Light Snow
8:15 AM 21.2 °F 8.9 °F 17.6 °F 86% 29.57 in 1.2 mi West 12.7 mph - 0.00 in Snow Light Snow
8:17 AM 21.2 °F 7.8 °F 17.6 °F 86% 29.57 in 2.5 mi West 15.0 mph 21.9 mph 0.00 in Snow Light Snow
8:24 AM 21.2 °F 7.3 °F 15.8 °F 80% 29.58 in 6.0 mi West 16.1 mph 23.0 mph 0.00 in Snow Light Snow
8:53 AM 21.9 °F 7.3 °F 15.1 °F 75% 29.61 in 4.0 mi West 18.4 mph 25.3 mph 0.00 in Snow Light Snow
9:17 AM 21.2 °F 4.2 °F 14.0 °F 74% 29.60 in 10.0 mi West 25.3 mph 31.1 mph 0.00 in   Overcast
9:53 AM 21.9 °F 8.2 °F 15.1 °F 75% 29.65 in 9.0 mi West 16.1 mph - 0.00 in Snow Light Snow
9:59 AM 21.2 °F 7.3 °F 17.6 °F 86% 29.63 in 2.5 mi West 16.1 mph - 0.00 in Snow Light Snow
10:03 AM 21.2 °F 7.8 °F 17.6 °F 86% 29.63 in 1.2 mi West 15.0 mph 24.2 mph 0.00 in Snow Light Snow
10:20 AM 21.2 °F 7.3 °F 15.8 °F 80% 29.63 in 2.5 mi West 16.1 mph - 0.00 in Snow Light Snow
10:34 AM 23.0 °F 7.2 °F 12.2 °F 63% 29.64 in 9.0 mi West 23.0 mph 32.2 mph 0.00 in   Overcast
10:42 AM 23.0 °F 6.9 °F 12.2 °F 63% 29.65 in 10.0 mi West 24.2 mph 31.1 mph 0.00 in   Overcast
10:53 AM 21.9 °F 5.5 °F 12.0 °F 66% 29.68 in 10.0 mi West 24.2 mph 33.4 mph 0.00 in   Overcast
11:07 AM 21.2 °F 5.2 °F 15.8 °F 80% 29.66 in 1.5 mi West 21.9 mph 33.4 mph 0.00 in Snow Light Snow
11:09 AM 21.2 °F 6.4 °F 15.8 °F 80% 29.66 in 0.8 mi West 18.4 mph 33.4 mph 0.00 in Snow Light Snow
11:22 AM 21.2 °F 7.8 °F 17.6 °F 86% 29.67 in 1.8 mi West 15.0 mph - 0.00 in Snow Light Snow
11:25 AM 21.2 °F 4.9 °F 15.8 °F 80% 29.67 in 3.0 mi West 23.0 mph 28.8 mph 0.00 in Snow Light Snow
11:31 AM 21.2 °F 4.5 °F 15.8 °F 80% 29.67 in 1.8 mi West 24.2 mph 36.8 mph 0.00 in Snow Light Snow
11:38 AM 21.2 °F 4.5 °F 15.8 °F 80% 29.68 in 1.5 mi West 24.2 mph 31.1 mph 0.00 in Snow Light Snow
11:41 AM 21.2 °F 5.6 °F 15.8 °F 80% 29.68 in 3.0 mi West 20.7 mph 28.8 mph 0.00 in Snow Light Snow
11:53 AM 21.0 °F 5.7 °F 14.0 °F 74% 29.71 in 6.0 mi West 19.6 mph 29.9 mph 0.00 in Snow Light Snow
12:22 PM 21.2 °F 5.6 °F 14.0 °F 74% 29.68 in 1.5 mi West 20.7 mph 28.8 mph 0.00 in Snow Light Snow
12:32 PM 21.2 °F 7.3 °F 14.0 °F 74% 29.68 in 3.0 mi West 16.1 mph 26.5 mph 0.00 in Snow Light Snow
12:53 PM 21.9 °F 8.2 °F 10.9 °F 63% 29.71 in 9.0 mi West 16.1 mph 27.6 mph 0.00 in   Overcast
1:16 PM 21.2 °F 6.0 °F 12.2 °F 68% 29.68 in 1.8 mi WNW 19.6 mph 26.5 mph 0.00 in Snow Light Snow
1:26 PM 21.2 °F 7.3 °F 14.0 °F 74% 29.69 in 3.0 mi West 16.1 mph 26.5 mph 0.00 in Snow Light Snow
1:42 PM 21.2 °F 8.3 °F 15.8 °F 80% 29.69 in 2.0 mi West 13.8 mph 24.2 mph 0.00 in Snow Light Snow
1:45 PM 21.2 °F 6.4 °F 15.8 °F 80% 29.69 in 1.2 mi West 18.4 mph 24.2 mph 0.00 in Snow Light Snow
1:47 PM 21.2 °F 6.0 °F 15.8 °F 80% 29.69 in 0.8 mi West 19.6 mph 24.2 mph 0.00 in Snow Light Snow
1:53 PM 21.0 °F 6.6 °F 16.0 °F 81% 29.73 in 0.5 mi West 17.3 mph - 0.00 in Snow Snow
2:01 PM 21.2 °F 8.3 °F 15.8 °F 80% 29.69 in 1.5 mi West 13.8 mph - 0.00 in Snow Light Snow
2:14 PM 21.2 °F 7.3 °F 15.8 °F 80% 29.70 in 2.5 mi West 16.1 mph 23.0 mph 0.00 in Snow Light Snow
2:26 PM 21.2 °F 6.0 °F 14.0 °F 74% 29.70 in 5.0 mi West 19.6 mph 29.9 mph 0.00 in Snow Light Snow
2:36 PM 21.2 °F 5.6 °F 12.2 °F 68% 29.70 in 7.0 mi West 20.7 mph 28.8 mph 0.00 in Snow Light Snow
2:50 PM 21.2 °F 8.3 °F 14.0 °F 74% 29.70 in 5.0 mi WNW 13.8 mph 25.3 mph 0.00 in Snow Light Snow
2:53 PM 21.9 °F 6.9 °F 14.0 °F 72% 29.74 in 8.0 mi WNW 19.6 mph 26.5 mph 0.00 in Snow Light Snow
3:26 PM 21.2 °F 7.3 °F 14.0 °F 74% 29.72 in 2.0 mi WNW 16.1 mph 24.2 mph 0.00 in Snow Light Snow
3:30 PM 21.2 °F 8.3 °F 17.6 °F 86% 29.72 in 1.5 mi WNW 13.8 mph - 0.00 in Snow Light Snow
3:37 PM 21.2 °F 6.0 °F 15.8 °F 80% 29.72 in 3.0 mi West 19.6 mph 26.5 mph 0.00 in Snow Light Snow
3:53 PM 21.0 °F 4.6 °F 12.0 °F 68% 29.76 in 6.0 mi West 23.0 mph 32.2 mph 0.00 in   Haze
4:53 PM 19.9 °F 4.3 °F 10.9 °F 68% 29.78 in 9.0 mi West 19.6 mph 29.9 mph 0.00 in   Overcast
5:53 PM 19.0 °F 4.5 °F 9.0 °F 65% 29.80 in 10.0 mi West 16.1 mph 21.9 mph 0.00 in   Overcast
6:53 PM 19.0 °F 6.1 °F 10.9 °F 71% 29.83 in 5.0 mi West 12.7 mph - 0.00 in Snow Light Snow
7:03 PM 17.6 °F 3.7 °F 12.2 °F 79% 29.79 in 3.0 mi West 13.8 mph - 0.00 in Snow Light Snow
7:11 PM 17.6 °F 5.7 °F 12.2 °F 79% 29.80 in 6.0 mi West 10.4 mph - 0.00 in Snow Light Snow
7:53 PM 18.0 °F 3.6 °F 12.0 °F 78% 29.86 in 10.0 mi WSW 15.0 mph - 0.00 in   Overcast
8:48 PM 17.6 °F 4.3 °F 12.2 °F 79% 29.83 in 2.5 mi West 12.7 mph - 0.00 in Snow Light Snow
8:49 PM 18.0 °F 5.4 °F 12.9 °F 81% 29.88 in 2.5 mi West 11.5 mph - 0.00 in Snow Light Snow
9:00 PM 17.6 °F 5.0 °F 14.0 °F 86% 29.84 in 2.5 mi West 11.5 mph - 0.00 in Snow Light Snow
9:08 PM 17.6 °F 5.7 °F 12.2 °F 79% 29.84 in 8.0 mi West 10.4 mph - 0.00 in   Overcast
9:43 PM 17.6 °F 3.7 °F 12.2 °F 79% 29.85 in 3.0 mi West 13.8 mph - 0.00 in Snow Light Snow
9:53 PM 17.1 °F 4.3 °F 12.0 °F 81% 29.89 in 4.0 mi West 11.5 mph - 0.00 in Snow Light Snow
10:12 PM 17.6 °F 5.0 °F 12.2 °F 79% 29.85 in 4.0 mi WSW 11.5 mph - 0.00 in Snow Light Snow
10:23 PM 15.8 °F 2.7 °F 12.2 °F 86% 29.85 in 3.0 mi West 11.5 mph - 0.00 in Snow Light Snow
10:34 PM 15.8 °F 2.7 °F 12.2 °F 86% 29.85 in 2.5 mi West 11.5 mph - 0.00 in Snow Light Snow
10:53 PM 16.0 °F 2.3 °F 12.0 °F 84% 29.90 in 3.0 mi West 12.7 mph - 0.00 in Snow Light Snow
11:53 PM 16.0 °F 3.6 °F 12.0 °F 84% 29.91 in 3.0 mi West 10.4 mph - 0.00 in Snow Light Snow